Location: Lacave
(43.0400°N, 0.9983°E)
Time: 02:22:08
(UTC+00:00)

Daily predictions for brighter satellites

Satellite Brightness Start Highest point End
(mag) Time Altitude Azimuth Time Altitude Azimuth Time Altitude Azimuth
ATLAS 3B R/B 4.3 03:30:35 25° NNE 03:31:34 25° NNE 03:37:18 10° E
Lacrosse 4 Rocket 4.4 03:38:11 14° E 03:38:11 14° E 03:39:05 10° ESE
ALOS 4.4 03:51:19 10° NNE 03:53:16 21° NE 03:53:16 21° NE
NOSS 3-4 (A) 3.8 04:00:50 58° ENE 04:00:50 58° ENE 04:06:02 10° NE
NOSS 3-4 (C) 3.8 04:00:54 59° ENE 04:00:54 59° ENE 04:06:10 10° NE
NOSS 3-2 (C) 3.9 04:00:07 84° NNW 04:00:27 89° NE 04:09:05 10° SE
Milstar 3 Cent rocket 4.2 04:00:16 26° S 04:01:41 27° SSE 04:10:24 10° ESE
CENTAUR R/B 3.1 04:01:35 75° NW 04:02:29 89° SW 04:11:24 10° SSE
Cosmos 1151 Rocket 4.5 04:17:01 35° E 04:17:01 35° E 04:20:21 10° SE
ATLAS 2AS CENTAUR R/B 3.1 04:15:30 35° SSW 04:19:19 76° ESE 04:27:12 10° NE
NOSS 3-2 (A) 4.5 04:28:37 44° SW 04:28:37 44° SW 04:35:44 10° S
Atlas Centaur 2 4.0 04:26:40 22° SSW 04:28:02 23° S 04:32:33 10° SE
RESURS DK-1 4.3 04:26:57 11° SSE 04:30:19 29° ESE 04:33:57 10° NE
Lacrosse 5 2.0 04:32:03 71° ENE 04:32:03 71° ENE 04:36:35 10° NE
ATLAS CENTAUR R/B 3.4 04:32:06 19° NE 04:32:23 19° NE 04:35:16 10° E
ADEOS 3.7 04:30:16 10° NNE 04:35:31 73° ESE 04:40:43 10° S
Cosmos 1328 Rocket 4.1 04:35:39 48° NE 04:36:26 56° E 04:40:47 10° SSE
OAO 2 Rocket 4.4 04:37:06 32° S 04:37:17 32° S 04:41:48 10° ESE
Cosmos 2263 Rocket 3.0 04:43:11 36° NNW 04:43:11 36° NNW 04:46:56 10° NNE
Gbstr 26 Del rocket 3.8 04:43:34 39° NE 04:43:34 39° NE 04:46:39 10° E
SJ 16-02 2.5 04:45:52 32° NNE 04:45:52 32° NNE 04:48:20 10° NNE
Meteor 1-4 Rocket 4.2 04:46:48 26° SSE 04:46:48 26° SSE 04:48:27 10° SSE
USA 238 DEB 4.4 04:45:53 37° SW 04:45:53 37° SW 04:52:00 10° S
USA 238 4.4 04:45:55 38° SW 04:45:55 38° SW 04:52:07 10° S
Cosmos 1898 Rocket 4.2 04:46:14 10° S 04:51:24 56° ESE 04:56:38 10° NNE
Meteor 1-26 Rocket 4.1 04:48:59 14° N 04:54:07 89° E 04:59:43 10° S
FENGYUN 3A 3.6 04:55:03 10° N 05:00:23 60° WNW 05:05:40 10° SSW
Cosmos 1408 Rocket 3.6 04:56:37 10° S 05:01:04 80° E 05:05:32 10° N
COSMO-SKYMED 1 2.7 05:00:31 10° SSE 05:04:50 76° ENE 05:07:59 18° N
Cosmos 2181 Rocket 3.8 04:59:08 10° N 05:05:19 74° W 05:11:25 10° S
Cosmos 1709 Rocket 4.1 04:59:35 10° SSW 05:05:44 49° WNW 05:11:56 10° N
Cosmos 1937 Rocket 4.1 05:03:29 10° S 05:08:30 56° ESE 05:13:34 10° NNE
Meteor 2-3 Rocket 3.8 05:07:25 10° SSW 05:13:02 57° WNW 05:18:45 10° N
CZ-4C R/B 1.9 05:11:05 24° SW 05:14:07 77° NW 05:19:59 10° NE
Lacrosse 4 Rocket 1.9 05:14:32 42° WSW 05:14:32 42° WSW 05:18:36 10° S
Cosmos 1689 Rocket 2.1 05:15:03 10° SSE 05:17:53 72° ENE 05:18:12 63° NNE
Cosmos 1943 3.9 05:17:53 32° WSW 05:17:59 32° WSW 05:22:56 10° SSW
FALCON 9 DEB 3.6 05:18:33 43° N 05:18:33 43° N 05:21:09 10° NE
CZ-4B R/B 3.1 05:14:29 10° NNE 05:19:00 88° E 05:23:22 10° SSW
SAR-Lupe-4 3.4 05:18:09 10° S 05:21:41 66° WSW 05:22:38 44° NW
Aureole 2 Rocket 3.9 05:20:20 10° SSE 05:22:33 27° ESE 05:24:48 10° NE
ATLAS 3B R/B 2.8 05:17:51 19° NW 05:23:11 88° NE 05:30:26 10° SE
Cosmos 1862 3.8 05:21:52 10° S 05:25:51 63° E 05:29:53 10° NNE
Genesis I 3.0 05:24:54 26° SW 05:26:56 71° NW 05:30:47 10° NNE
YAOGAN 6 4.4 05:26:24 10° NNE 05:29:36 32° E 05:32:45 10° SSE
deb Chang Zheng 4 3.9 05:28:38 10° N 05:32:43 40° WNW 05:36:47 10° SW
Cosmos 858 Rocket 4.4 05:27:32 10° SSW 05:32:45 89° WNW 05:38:01 10° NNE
ALOS 3.4 05:28:54 10° N 05:31:44 25° NW 05:31:44 25° NW
Cosmos 990 Rocket 4.0 05:28:59 10° SW 05:34:06 55° WNW 05:39:17 10° NNE
Cosmos 2074 Rocket 3.9 05:29:28 10° SSW 05:35:39 73° W 05:41:53 10° N
Cosmos 923 Rocket 4.5 05:34:01 24° NW 05:36:37 39° WSW 05:41:30 10° S
PSLV R/B 4.3 05:34:41 10° NNE 05:38:31 60° E 05:42:13 10° S
SAR-Lupe-1 4.4 05:35:20 10° S 05:38:44 41° W 05:40:08 28° NW
ASTRO F (AKARI) 4.2 05:37:21 10° NNE 05:40:27 83° ESE 05:43:37 10° SSW
BREEZE M DEB (TANK) 3.3 05:31:02 10° SW 05:40:54 66° SSE 05:44:00 10° ENE
Cosmos 405 Rocket 2.6 05:37:58 10° S 05:41:39 87° ESE 05:45:25 10° N
Meteor 1-31 Rocket 4.5 05:39:15 10° NNW 05:40:29 17° NNW 05:40:29 17° NNW
EO 1 Delta rocket 3.8 05:40:55 10° S 05:46:05 80° W 05:50:43 10° NNW
Cosmos 1812 2.6 05:44:13 10° N 05:48:05 86° W 05:51:55 10° S
Cosmos 2228 Rocket 3.0 05:46:11 10° N 05:50:37 84° W 05:55:00 10° S
Cosmos 1515 Rocket 4.0 05:46:56 10° NNW 05:51:05 39° W 05:55:13 10° SSW
NOSS 3-4 (A) 4.3 05:48:19 19° WNW 05:51:18 28° NW 05:56:44 10° NNE
NOSS 3-4 (C) 4.3 05:48:24 19° WNW 05:51:25 28° NW 05:56:52 10° NNE
PSLV R/B 4.3 05:47:36 10° S 05:51:34 44° W 05:55:31 10° NNW
SL-4 R/B 3.4 05:50:37 16° NW 05:52:26 22° N 05:55:24 10° NE
CENTAUR R/B 4.3 05:48:50 17° WNW 05:52:32 23° WSW 05:59:01 10° SSW
SKYMED 2 4.3 05:49:08 10° SSW 05:53:02 32° W 05:56:36 12° NW
Cosmos 2184 Rocket 4.1 05:47:02 10° SSW 05:53:12 56° WNW 05:59:29 10° N
GPS 2-04 Rocket1 4.3 05:50:40 12° WSW 05:53:28 25° S 05:56:36 10° SE
Cosmos 1151 Rocket 4.4 05:53:56 18° W 05:53:56 18° W 05:56:29 10° SW
Cosmos 1782 3.8 05:52:14 19° NW 05:53:56 26° W 05:57:18 10° SW
ERS-2 4.1 05:52:52 10° SW 05:53:52 13° WSW 05:53:52 13° WSW
FALCON 9 DEB 4.2 05:56:58 21° NW 05:58:01 25° NNW 06:00:45 10° NE
USA 234 3.6 05:53:13 10° NE 05:59:45 69° SE 06:06:16 10° SW
Cosmos 1844 Rocket 2.8 05:54:16 10° SW 05:59:45 52° WNW 06:05:19 10° NNE
Spot 2 4.5 05:55:46 10° NNE 06:00:57 83° WNW 06:05:58 10° SSW
Cosmos 1680 Rocket 4.4 06:00:25 12° NW 06:04:27 29° W 06:08:58 10° SSW
EXPRESS MD2 4.5 06:03:36 15° NW 06:06:50 54° NNE 06:14:29 10° ESE
Cosmos 1707 Rocket 4.3 06:03:22 10° N 06:07:38 54° E 06:11:52 10° SSE
COSMOS 2455 2.9 06:01:50 10° SSW 06:07:51 90° SSE 06:13:56 10° NNE
RESURS DK-1 3.3 06:04:47 10° WSW 06:08:19 27° NW 06:11:54 10° N
BREEZE-M (TANK) 4.0 06:00:45 10° SW 06:09:34 49° SSE 06:12:27 10° ENE
MOS 1-B 4.4 06:04:04 10° NNE 06:09:55 86° ESE 06:15:44 10° SSW
ATLAS 2AS CENTAUR R/B 3.7 06:03:56 10° W 06:11:02 34° NW 06:18:01 10° NNE
ATLAS CENTAUR R/B 1.6 06:08:18 13° NW 06:11:25 43° WSW 06:15:13 10° S
BREEZE-M DEB 3.5 06:02:56 12° WNW 06:11:38 73° SW 06:14:40 10° SE
Cosmos 1500 Rocket 4.2 06:09:06 10° SW 06:13:00 33° WNW 06:16:55 10° N
NOAA 6 4.0 06:07:52 10° NNE 06:13:00 80° WNW 06:18:06 10° SSW
Cosmos 1844 3.8 06:08:19 10° SW 06:13:41 49° WNW 06:19:07 10° NNE
Lacrosse 5 3.0 06:11:18 12° WNW 06:15:00 26° NNW 06:19:18 10° NNE
H-2A R/B 3.3 06:11:55 10° N 06:15:31 35° WNW 06:19:04 10° SW
Atlas Centaur 2 4.0 06:11:51 10° WSW 06:16:18 21° S 06:20:05 10° SE
Cosmos 372 Rocket 3.9 06:12:06 10° SSW 06:17:10 71° WNW 06:22:17 10° NNE
CZ-4B DEB 4.2 06:12:43 10° N 06:18:10 72° WNW 06:23:37 10° SSW
Cosmos 1437 Rocket 2.7 06:14:28 10° NNW 06:18:12 62° W 06:21:55 10° S
Okean O Rocket 2.0 06:17:16 10° NNE 06:21:43 72° ESE 06:26:09 10° S
USA 81 4.2 06:18:05 10° S 06:23:20 82° E 06:28:38 10° N
PAYLOAD B 4.2 06:19:06 10° NNE 06:24:37 77° WNW 06:30:06 10° SSW
SMAP 3.1 06:20:45 10° NNE 06:25:26 90° ESE 06:30:06 10° SSW
Gbstr 26 Del rocket 3.8 06:26:15 10° WNW 06:29:39 32° SW 06:33:20 10° SSE
ATLAS 5 CENTAUR R/B 1.9 06:26:23 10° SSW 06:30:20 66° ESE 06:34:44 10° NE
Sich 1 3.2 06:29:17 10° SSW 06:33:37 53° W 06:37:59 10° N
Cosmos 2218 Rocket 4.4 06:27:29 10° S 06:33:42 70° E 06:39:53 10° NNE
CZ-2C R/B 2.8 06:29:20 10° SSE 06:34:50 89° WSW 06:40:15 10° NNW
Nadezhda 3 Rocket 4.4 06:30:03 10° NNW 06:35:54 42° W 06:41:41 10° SSW
Cosmos 2366 rocket 4.4 06:31:47 10° S 06:38:04 73° E 06:44:21 10° NNE
